[[{"header":{"parameterUnit":"m.s-1","parameterCategory":2,"la1":30.2991,"la2":30.254,"lo1":-89.0895,"lo2":-89.0444,"dy":0.0017,"dx":0.0017,"nx":28,"ny":28,"refTime":"2024-03-27T21:00:00:Z","depth":"0","parameterNumber":2,"parameterNumberName":"U-component_of_CURRENTS"},"data":[0,0,0,0,0,0,0,0,0,0,0,0,0,0,0,0,0,0,0,0,0,0,0,0,0,0,0,0,0,0,0,0,0,0,0,0,0,0,0,0,0,0,0,0,0,0,0,0,0,0,0,0,0,0,0,0,0,0,0.2706,0.2706,0,0.2716,0.2716,0.2716,0.2694,0.2693,0.2693,0.2693,0.2668,0.2668,0.2667,0,0,0,0,0,0,0,0,0,0,0,0,0,0.2681,0.2681,0.2706,0.2706,0.2707,0.2716,0.2716,0.2716,0.2694,0.2693,0.2693,0.2692,0.2668,0.2668,0.2667,0,0,0,0,0,0,0,0,0,0,0,0,0,0.2689,0.2681,0.2706,0.2699,0.2698,0.2716,0.2716,0.2716,0.2694,0.2693,0.2693,0.2692,0.2668,0.2668,0.2667,0.2679,0,0,0.2666,0.2666,0,0,0,0,0,0,0,0,0.2688,0.2689,0.2699,0.2699,0.2699,0.2705,0.2698,0.2703,0.2694,0.2693,0.2693,0.2692,0.2679,0.2678,0.2678,0.2678,0.2677,0.2666,0.2666,0.2666,0.2666,0,0,0,0,0,0,0,0.2688,0.2689,0.2707,0.27,0.27,0.27,0.27,0.2699,0.2687,0.2693,0.2692,0.2698,0.2679,0.2679,0.2677,0.2677,0.2666,0.2666,0.2666,0.2666,0.2706,0.2707,0,0,0,0,0,0,0.2692,0.2688,0.2707,0.2708,0.2695,0.2701,0.2701,0.2702,0.2688,0.2686,0.2698,0.2697,0.268,0.2678,0.2676,0.2707,0.2666,0.2666,0.2665,0.2704,0.2706,0.2707,0,0,0,0,0,0,0.2691,0.2693,0.2706,0.2701,0.2702,0.2702,0.2704,0.2702,0.2707,0.2693,0.269,0.2705,0.2679,0.2677,0.2685,0.2705,0.2665,0.2665,0.2703,0.2705,0.2707,0.2758,0,0,0,0,0,0,0.269,0.2693,0.2698,0.2701,0.2703,0.2725,0.2704,0.2703,0.2713,0.2711,0.2698,0.2694,0.2678,0.2686,0.2685,0.2704,0.2665,0.2701,0.2704,0.2706,0.2754,0.2761,0.2767,0,0,0,0,0,0.2689,0.2699,0.2698,0.2701,0.2709,0.2726,0.2728,0.2723,0.2714,0.2723,0.2715,0.2695,0.27,0.2687,0.2685,0.2705,0.27,0.2703,0.2706,0.2752,0.276,0.2767,0,0,0,0,0,0,0.269,0.2698,0.2697,0.2708,0.2722,0.2724,0.2734,0.2731,0.2732,0.2729,0.2709,0.2706,0.2724,0.271,0.2696,0.2725,0.2698,0.2701,0.2733,0.2741,0.2747,0.2774,0.2665,0,0,0,0,0,0.2695,0.2703,0.2713,0.2724,0.2732,0.2735,0.2743,0.2742,0.2743,0.2743,0.2733,0.2728,0.2736,0.2733,0.2735,0.2748,0.276,0.2762,0.2768,0.2773,0.2795,0.2828,0.284,0.2717,0.2717,0.2716,0,0,0.2697,0.2705,0.2709,0.2726,0.2733,0.2754,0.2737,0.2754,0.2772,0.2741,0.2757,0.2752,0.2746,0.2763,0.277,0.2751,0.2816,0.2777,0.2781,0.2801,0.2832,0.2844,0.2855,0.2718,0.2718,0.2718,0,0,0.2711,0.2716,0.273,0.2746,0.2767,0.2772,0.278,0.2789,0.2794,0.281,0.2799,0.2812,0.2806,0.2815,0.2817,0.2861,0.2852,0.2854,0.2902,0.2933,0.2943,0.2953,0.2988,0.3,0.2851,0.2852,0.2852,0,0.2717,0.2732,0.2738,0.2763,0.278,0.2783,0.2807,0.2819,0.2829,0.2842,0.2821,0.2847,0.2836,0.2877,0.2891,0.2877,0.2893,0.287,0.2942,0.2951,0.296,0.2993,0.3006,0.2854,0.2854,0.2854,0.2853,0,0.2741,0.276,0.2773,0.2802,0.2823,0.2845,0.2866,0.2886,0.2886,0.2894,0.2931,0.2925,0.2943,0.294,0.2927,0.2988,0.2979,0.2949,0.2923,0.2976,0.3007,0.302,0.2858,0.2857,0.2857,0.2856,0,0,0.2735,0.278,0.2785,0.2802,0.2845,0.286,0.2906,0.2942,0.2977,0.2982,0.3026,0.3039,0.304,0.3045,0.3036,0.3061,0.3131,0.3034,0.3035,0.3071,0.3209,0.3201,0.3214,0.3109,0.3112,0.3114,0.3208,0,0.2752,0.2792,0.2818,0.2859,0.2879,0.2912,0.2954,0.2991,0.302,0.3063,0.3076,0.311,0.3079,0.3094,0.3118,0.3133,0.3166,0.3109,0.3153,0.3155,0.3142,0.3229,0.3212,0.3294,0.3219,0.3222,0.3223,0,0.2764,0.2789,0.2828,0.2882,0.2896,0.2925,0.2995,0.3036,0.3108,0.3136,0.3183,0.3193,0.325,0.3204,0.3272,0.3237,0.3239,0.324,0.3242,0.323,0.317,0.3229,0.3319,0.3329,0.3242,0.324,0.3239,0,0.2737,0.2795,0.282,0.2839,0.2904,0.2933,0.2972,0.305,0.3096,0.319,0.323,0.3294,0.3327,0.3351,0.3359,0.3323,0.3427,0.3369,0.3368,0.3367,0.3362,0.3357,0.3471,0.3425,0.3425,0.3424,0.3424,0,0.2733,0.2754,0.2806,0.2818,0.286,0.2916,0.2977,0.3039,0.3133,0.3191,0.3259,0.3326,0.3365,0.3417,0.3412,0.3448,0.3471,0.3415,0.3404,0.3379,0.3374,0.3387,0.3358,0.3428,0.3427,0.3426,0.3426,0,0.2694,0.2729,0.276,0.2823,0.2844,0.2872,0.2964,0.3009,0.3113,0.3199,0.3232,0.3364,0.3453,0.3486,0.3544,0.3516,0.3483,0.3542,0.3516,0.3501,0.3489,0.3462,0.3355,0.3237,0.3568,0.3569,0.3569,0,0.2675,0.2686,0.2745,0.2758,0.2783,0.2835,0.2871,0.2983,0.3039,0.3217,0.3251,0.339,0.3481,0.3592,0.3607,0.3638,0.3515,0.3602,0.3526,0.3529,0.3491,0.329,0.3181,0.3543,0.3543,0.3543,0.3543,0,0.2636,0.2657,0.2677,0.2709,0.2737,0.2775,0.2837,0.2885,0.302,0.3122,0.3267,0.3369,0.3521,0.359,0.3648,0.3648,0.3492,0.3604,0.3621,0.3512,0.3287,0.3155,0.3441,0.3545,0.3545,0.3545,0.3545,0.3545,0.2599,0.2601,0.2626,0.2648,0.2676,0.27,0.2716,0.2807,0.2908,0.3056,0.3207,0.3364,0.3553,0.3666,0.3626,0.3643,0.3498,0.3601,0.3579,0.3383,0.3233,0.3528,0.3601,0.3601,0.3601,0.3601,0.3602,0,0.2538,0.2544,0.2563,0.2576,0.2572,0.2618,0.2674,0.2697,0.2785,0.3001,0.3139,0.3406,0.3526,0.3626,0.3745,0.3679,0.343,0.3608,0.3367,0.3263,0.3592,0.3563,0.3613,0.3613,0.3613,0.3613,0.3613,0.3613,0.2505,0.2489,0.2495,0.2461,0.2471,0.2451,0.2467,0.2536,0.2678,0.289,0.308,0.3267,0.3605,0.3867,0.3892,0.3775,0.3487,0.3361,0.325,0.3598,0.3596,0.3593,0.3564,0.3614,0.3614,0.2815,0.281,0.2806]},{"header":{"parameterUnit":"m.s-1","parameterCategory":2,"la1":30.2991,"la2":30.254,"lo1":-89.0895,"lo2":-89.0444,"dy":0.0017,"dx":0.0017,"nx":28,"ny":28,"refTime":"2024-03-27T21:00:00:Z","depth":"0","parameterNumber":3,"parameterNumberName":"V-component_of_CURRENTS"},"data":[0,0,0,0,0,0,0,0,0,0,0,0,0,0,0,0,0,0,0,0,0,0,0,0,0,0,0,0,0,0,0,0,0,0,0,0,0,0,0,0,0,0,0,0,0,0,0,0,0,0,0,0,0,0,0,0,0,0,0.005,0.005,0,0.0011,0.001,0.0009,-0.0024,-0.0024,-0.0025,-0.0025,-0.0079,-0.008,-0.0081,0,0,0,0,0,0,0,0,0,0,0,0,0,0.0039,0.0039,0.005,0.005,0.005,0.0011,0.001,0.0009,-0.0024,-0.0024,-0.0025,-0.0025,-0.0079,-0.008,-0.0082,0,0,0,0,0,0,0,0,0,0,0,0,0,0.0024,0.0039,0.005,0.0029,0.0027,0.0011,0.001,0.0009,-0.0024,-0.0024,-0.0025,-0.0025,-0.0078,-0.008,-0.0082,-0.0086,0,0,-0.0087,-0.0088,0,0,0,0,0,0,0,0,0.0025,0.0025,0.0033,0.0031,0.0028,-0.0001,-0.0014,-0.0023,-0.0024,-0.0006,-0.0025,-0.0025,-0.0053,-0.0057,-0.0066,-0.0089,-0.0091,-0.0088,-0.0089,-0.0089,-0.009,0,0,0,0,0,0,0,0.0026,0.0026,0.0033,0.0033,0.003,0.0002,0.0,-0.0016,-0.0029,-0.0008,-0.001,-0.0012,-0.0054,-0.0064,-0.0067,-0.0092,-0.0087,-0.0089,-0.009,-0.0091,-0.0125,-0.0125,0,0,0,0,0,0,0.0038,0.0027,0.0034,0.0032,0.0028,0.0003,0.0,0.0008,-0.0028,-0.0034,-0.0011,-0.0013,-0.006,-0.0065,-0.0069,-0.0063,-0.0089,-0.0091,-0.0092,-0.0125,-0.0125,-0.0125,0,0,0,0,0,0,0.0038,0.004,0.0036,0.0029,0.0027,0.0004,0.0012,0.0007,0.0001,-0.0031,-0.0037,-0.0012,-0.0061,-0.0067,-0.0077,-0.0066,-0.0092,-0.0094,-0.0125,-0.0125,-0.0125,-0.0059,0,0,0,0,0,0,0.0038,0.004,0.0046,0.0031,0.0028,0.0037,0.0012,0.0007,0.0001,-0.0002,-0.0033,-0.0039,-0.0062,-0.0074,-0.0078,-0.0069,-0.0095,-0.0126,-0.0125,-0.0125,-0.0062,-0.0057,-0.0053,0,0,0,0,0,0.0038,0.0057,0.0047,0.0048,0.0039,0.0038,0.0034,0.0014,0.0002,0.0006,-0.0017,-0.0037,-0.0075,-0.0075,-0.008,-0.0071,-0.0126,-0.0125,-0.0125,-0.0064,-0.0058,-0.0053,0,0,0,0,0,0,0.0056,0.0055,0.0044,0.0061,0.0052,0.0033,0.0034,0.002,0.0005,0.0001,-0.0031,-0.0038,-0.0046,-0.0068,-0.0067,-0.0082,-0.0105,-0.0106,-0.0057,-0.0051,-0.0047,-0.0025,-0.0097,0,0,0,0,0,0.0063,0.0076,0.0066,0.0078,0.0077,0.0055,0.005,0.0039,0.0024,0.0017,-0.0006,-0.0031,-0.0049,-0.0056,-0.0078,-0.0081,-0.011,-0.0081,-0.0076,-0.0072,-0.0059,-0.0098,-0.0095,-0.0123,-0.0123,-0.0123,0,0,0.0072,0.0073,0.008,0.0082,0.0072,0.0085,0.0051,0.0053,0.0063,0.0014,0.0018,-0.0015,-0.0047,-0.0053,-0.0058,-0.0068,-0.0081,-0.0072,-0.0068,-0.0057,-0.0097,-0.0094,-0.0091,-0.0123,-0.0123,-0.0123,0,0,0.0103,0.0099,0.0121,0.012,0.0115,0.0106,0.0111,0.0095,0.0087,0.0084,0.005,0.0028,0.0001,-0.0018,-0.0032,-0.0015,-0.0057,-0.0027,0.0018,-0.0019,-0.0016,-0.0015,-0.0051,-0.0053,-0.0022,-0.0022,-0.0022,0,0.0112,0.0143,0.0126,0.0146,0.0155,0.0123,0.015,0.0139,0.0121,0.0121,0.0094,0.0051,0.0019,0.0017,0.0019,-0.0002,-0.0032,0.0003,-0.0011,-0.001,-0.001,-0.0048,-0.0051,-0.0018,-0.0019,-0.0019,-0.0019,0,0.016,0.0182,0.0196,0.0216,0.022,0.0239,0.0226,0.0227,0.0208,0.0192,0.0177,0.0125,0.0103,0.0082,0.0056,0.0049,0.0022,-0.0003,-0.0021,-0.0003,-0.0044,-0.0049,-0.0014,-0.0015,-0.0016,-0.0017,0,0,0.0193,0.0226,0.0232,0.0258,0.0262,0.0278,0.0293,0.0304,0.0324,0.0279,0.0292,0.024,0.0203,0.0185,0.014,0.0104,0.0074,0.0058,0.0055,0.003,-0.001,-0.0041,-0.0049,0.0044,0.0043,0.0043,-0.0041,0,0.0238,0.0301,0.03,0.036,0.0394,0.0377,0.04,0.04,0.0385,0.0387,0.0322,0.0312,0.0246,0.0233,0.0187,0.0105,0.0066,0.0099,-0.003,-0.0034,-0.0058,-0.0054,-0.0053,-0.0129,-0.0046,-0.0046,-0.0047,0,0.0292,0.033,0.0399,0.0449,0.0462,0.0491,0.0529,0.0545,0.053,0.0514,0.048,0.0424,0.0371,0.0306,0.0178,0.0201,0.0107,0.0033,0.0027,-0.0024,-0.0073,-0.0135,-0.0141,-0.0343,-0.0054,-0.0054,-0.0053,0,0.0343,0.0403,0.0467,0.0483,0.0529,0.0559,0.0583,0.0588,0.0618,0.0597,0.0603,0.052,0.0485,0.0357,0.0199,0.0188,0.005,0.0013,-0.0105,-0.0108,-0.0143,-0.0149,-0.0351,-0.0078,-0.0078,-0.0077,-0.0077,0,0.0402,0.0453,0.0501,0.054,0.0623,0.0625,0.0702,0.0708,0.0726,0.0773,0.0676,0.0684,0.0495,0.0389,0.0234,0.0056,0.0073,-0.0092,-0.013,-0.0121,-0.0124,-0.033,-0.0438,-0.0081,-0.008,-0.0079,-0.0079,0,0.0451,0.0479,0.0562,0.0627,0.0655,0.0715,0.0792,0.0842,0.0842,0.0899,0.0896,0.0808,0.0666,0.0466,0.0259,0.0111,-0.0193,-0.0132,-0.0109,-0.0143,-0.0442,-0.0545,-0.0787,-0.0916,-0.0275,-0.0276,-0.0277,0,0.0481,0.0531,0.0632,0.0688,0.0725,0.081,0.0872,0.0904,0.0965,0.0983,0.102,0.0899,0.0843,0.0519,0.0225,-0.0055,-0.025,-0.0238,-0.0263,-0.0459,-0.0602,-0.0686,-0.0783,-0.0289,-0.0291,-0.0291,-0.0292,0,0.0544,0.0581,0.0649,0.0768,0.0851,0.0947,0.1039,0.1106,0.1149,0.1196,0.1232,0.1187,0.0871,0.0593,0.0198,-0.0013,-0.0404,-0.0265,-0.0476,-0.0636,-0.0731,-0.0872,-0.0238,-0.03,-0.0299,-0.0298,-0.0298,-0.0298,0.059,0.0649,0.0743,0.0855,0.095,0.107,0.1164,0.126,0.1372,0.1468,0.1409,0.1399,0.0974,0.0432,0.0104,-0.0478,-0.0494,-0.0639,-0.0748,-0.0816,-0.0945,-0.0326,-0.0424,-0.0424,-0.0424,-0.0424,-0.0424,0,0.0646,0.0714,0.0821,0.0955,0.1064,0.1109,0.1267,0.1374,0.1519,0.1615,0.1656,0.1455,0.0927,0.0375,-0.0394,-0.0841,-0.1036,-0.1105,-0.1232,-0.1311,-0.0764,-0.0768,-0.0933,-0.0933,-0.0933,-0.0933,-0.0933,-0.0932,0.0677,0.0783,0.0838,0.1025,0.112,0.1284,0.1382,0.1543,0.1664,0.1797,0.1814,0.177,0.1349,-0.0035,-0.1033,-0.1295,-0.164,-0.1721,-0.1908,-0.153,-0.1494,-0.1461,-0.1491,-0.1805,-0.1807,-0.241,-0.2416,-0.2421]}],[{"header":{"parameterUnit":"m.s-1","parameterCategory":2,"la1":30.2991,"la2":30.254,"lo1":-89.0895,"lo2":-89.0444,"dy":0.0017,"dx":0.0017,"nx":28,"ny":28,"refTime":"2024-03-27T21:00:00:Z","depth":"2","parameterNumber":2,"parameterNumberName":"U-component_of_CURRENTS"},"data":[0,0,0,0,0,0,0,0,0,0,0,0,0,0,0,0,0,0,0,0,0,0,0,0,0,0,0,0,0,0,0,0,0,0,0,0,0,0,0,0,0,0,0,0,0,0,0,0,0,0,0,0,0,0,0,0,0,0,0.2642,0.2643,0,0.2653,0.2653,0.2653,0.2633,0.2633,0.2633,0.2632,0.261,0.261,0.261,0,0,0,0,0,0,0,0,0,0,0,0,0,0.2616,0.2617,0.2642,0.2643,0.2643,0.2653,0.2653,0.2653,0.2633,0.2633,0.2632,0.2632,0.261,0.261,0.261,0,0,0,0,0,0,0,0,0,0,0,0,0,0.2625,0.2617,0.2642,0.2637,0.2637,0.2653,0.2653,0.2653,0.2634,0.2633,0.2632,0.2632,0.2611,0.261,0.261,0.262,0,0,0.2609,0.2609,0,0,0,0,0,0,0,0,0.2624,0.2625,0.2637,0.2637,0.2637,0.2643,0.2636,0.2641,0.2634,0.2632,0.2632,0.2631,0.2621,0.262,0.2619,0.2619,0.2618,0.2609,0.2609,0.2609,0.2609,0,0,0,0,0,0,0,0.2624,0.2625,0.2644,0.2638,0.2638,0.2637,0.2638,0.2637,0.2627,0.2632,0.2631,0.2637,0.262,0.262,0.2619,0.2618,0.2609,0.2609,0.2608,0.2608,0.2648,0.265,0,0,0,0,0,0,0.2628,0.2624,0.2644,0.2644,0.2632,0.2639,0.2639,0.264,0.2627,0.2626,0.2637,0.2636,0.2621,0.2619,0.2618,0.265,0.2609,0.2608,0.2608,0.2647,0.2649,0.265,0,0,0,0,0,0,0.2627,0.2629,0.2643,0.2637,0.2639,0.264,0.2641,0.264,0.2647,0.2632,0.263,0.2645,0.262,0.2618,0.2627,0.2648,0.2608,0.2608,0.2646,0.2648,0.2649,0.2701,0,0,0,0,0,0,0.2626,0.2629,0.2635,0.2637,0.264,0.2662,0.2642,0.2641,0.2652,0.265,0.2639,0.2635,0.262,0.2628,0.2627,0.2647,0.2608,0.2644,0.2647,0.2649,0.2697,0.2704,0.271,0,0,0,0,0,0.2625,0.2635,0.2635,0.2638,0.2647,0.2663,0.2664,0.2661,0.2653,0.2662,0.2655,0.2636,0.2642,0.2629,0.2627,0.2648,0.2643,0.2646,0.2649,0.2695,0.2703,0.271,0,0,0,0,0,0,0.2626,0.2635,0.2634,0.2646,0.2659,0.2661,0.2671,0.2669,0.2671,0.267,0.265,0.2648,0.2666,0.2652,0.2638,0.2668,0.2641,0.2643,0.2676,0.2684,0.269,0.2716,0.2607,0,0,0,0,0,0.2631,0.264,0.265,0.2661,0.267,0.2673,0.268,0.268,0.2682,0.2683,0.2674,0.267,0.2677,0.2676,0.2678,0.2691,0.2702,0.2704,0.2711,0.2716,0.2738,0.2769,0.278,0.2659,0.2659,0.2659,0,0,0.2634,0.2642,0.2646,0.2663,0.2671,0.2691,0.2675,0.2693,0.2711,0.2681,0.2698,0.2694,0.2688,0.2705,0.2712,0.2694,0.2757,0.2719,0.2724,0.2743,0.2773,0.2785,0.2796,0.2661,0.2661,0.2661,0,0,0.2648,0.2654,0.2668,0.2684,0.2705,0.271,0.2719,0.2728,0.2733,0.275,0.274,0.2754,0.2748,0.2757,0.2759,0.2803,0.2793,0.2797,0.2844,0.2874,0.2884,0.2893,0.2927,0.2939,0.2794,0.2794,0.2794,0,0.2654,0.267,0.2677,0.27,0.2717,0.2721,0.2745,0.2758,0.2768,0.2781,0.2761,0.2789,0.2778,0.2819,0.2832,0.2819,0.2834,0.2812,0.2882,0.2892,0.29,0.2932,0.2945,0.2797,0.2797,0.2796,0.2796,0,0.2679,0.2698,0.2711,0.2739,0.2761,0.2782,0.2803,0.2823,0.2825,0.2833,0.2871,0.2866,0.2884,0.2881,0.2868,0.2928,0.2919,0.289,0.2863,0.2916,0.2946,0.2958,0.2801,0.28,0.2799,0.2798,0,0,0.2674,0.2718,0.2723,0.274,0.2783,0.2797,0.2843,0.2879,0.2913,0.2919,0.2964,0.2978,0.2979,0.2985,0.2976,0.3,0.3068,0.2974,0.2974,0.3009,0.3144,0.3132,0.3144,0.3048,0.305,0.3052,0.3142,0,0.2691,0.273,0.2755,0.2796,0.2816,0.2849,0.2891,0.2927,0.2956,0.3,0.3012,0.3047,0.3017,0.3034,0.3057,0.3071,0.3102,0.3048,0.3088,0.309,0.3074,0.3158,0.2881,0.2938,0.3153,0.3155,0.3157,0,0.2703,0.2728,0.2767,0.2819,0.2833,0.2863,0.2933,0.2973,0.3043,0.3072,0.3119,0.313,0.3186,0.3141,0.3207,0.3173,0.3174,0.3175,0.3177,0.3161,0.3101,0.292,0.2952,0.3177,0.3175,0.3174,0.3172,0,0.2678,0.2735,0.276,0.2779,0.2842,0.2873,0.2911,0.2988,0.3033,0.3127,0.3166,0.3229,0.3263,0.3285,0.3292,0.3257,0.3356,0.33,0.3295,0.3293,0.3066,0.3041,0.3354,0.3354,0.3354,0.3353,0.3353,0,0.2675,0.2696,0.2748,0.276,0.2803,0.2858,0.2919,0.2979,0.3072,0.3129,0.3197,0.3261,0.33,0.3349,0.3343,0.3375,0.34,0.334,0.3329,0.3077,0.3054,0.3258,0.3246,0.3357,0.3356,0.3355,0.3355,0,0.2638,0.2673,0.2703,0.2767,0.2787,0.2817,0.2908,0.2952,0.3055,0.314,0.3173,0.33,0.3385,0.3416,0.3471,0.344,0.3466,0.3461,0.3176,0.3132,0.3369,0.3359,0.348,0.3481,0.3481,0.3482,0.3482,0,0.262,0.2631,0.269,0.2704,0.273,0.2783,0.2818,0.2928,0.2982,0.3156,0.3188,0.3323,0.3403,0.3505,0.347,0.3484,0.3514,0.3242,0.3133,0.3412,0.3389,0.3377,0.3366,0.2842,0.2837,0.2833,0.283,0,0.2583,0.2605,0.2625,0.2657,0.2686,0.2723,0.2785,0.2831,0.2963,0.3056,0.3193,0.3285,0.3385,0.3298,0.333,0.3293,0.3221,0.3166,0.3525,0.2871,0.2823,0.2796,0.2804,0.2795,0.2798,0.2801,0.2803,0.2804,0.2547,0.255,0.2576,0.2597,0.2625,0.2648,0.2663,0.2724,0.281,0.2886,0.3069,0.309,0.3123,0.3048,0.2964,0.2885,0.3106,0.2945,0.2951,0.2963,0.2892,0.2849,0.2812,0.2815,0.2818,0.2821,0.2823,0,0.2475,0.2494,0.2513,0.2526,0.2502,0.2568,0.2621,0.2571,0.2608,0.2699,0.2777,0.2585,0.2569,0.2587,0.2417,0.2445,0.2353,0.2345,0.2178,0.2219,0.2254,0.2138,0.1862,0.1859,0.1856,0.1853,0,0,0.244,0.2417,0.2422,0.2375,0.2398,0.2327,0.234,0.2287,0.229,0.2246,0.224,0.2427,0.2531,0.2149,0.2118,0.1953,0.2057,0.1881,0.2661,0.2506,0.2536,0.2626,0.2501,0,0,0,0,0]},{"header":{"parameterUnit":"m.s-1","parameterCategory":2,"la1":30.2991,"la2":30.254,"lo1":-89.0895,"lo2":-89.0444,"dy":0.0017,"dx":0.0017,"nx":28,"ny":28,"refTime":"2024-03-27T21:00:00:Z","depth":"2","parameterNumber":3,"parameterNumberName":"V-component_of_CURRENTS"},"data":[0,0,0,0,0,0,0,0,0,0,0,0,0,0,0,0,0,0,0,0,0,0,0,0,0,0,0,0,0,0,0,0,0,0,0,0,0,0,0,0,0,0,0,0,0,0,0,0,0,0,0,0,0,0,0,0,0,0,0.0109,0.0109,0,0.0071,0.0071,0.007,0.0037,0.0037,0.0037,0.0036,-0.0017,-0.0018,-0.0019,0,0,0,0,0,0,0,0,0,0,0,0,0,0.0097,0.0098,0.0109,0.0109,0.0109,0.0071,0.0071,0.007,0.0037,0.0037,0.0037,0.0036,-0.0016,-0.0018,-0.0019,0,0,0,0,0,0,0,0,0,0,0,0,0,0.0084,0.0098,0.011,0.0089,0.0087,0.0072,0.0071,0.007,0.0037,0.0037,0.0037,0.0036,-0.0016,-0.0018,-0.0019,-0.0023,0,0,-0.0025,-0.0026,0,0,0,0,0,0,0,0,0.0085,0.0084,0.0092,0.009,0.0088,0.006,0.0047,0.0039,0.0037,0.0055,0.0036,0.0036,0.0009,0.0005,-0.0003,-0.0026,-0.0028,-0.0025,-0.0026,-0.0027,-0.0027,0,0,0,0,0,0,0,0.0086,0.0085,0.0093,0.0092,0.0089,0.0062,0.006,0.0045,0.0033,0.0053,0.0051,0.0049,0.0007,-0.0001,-0.0005,-0.0029,-0.0025,-0.0026,-0.0028,-0.0028,-0.0062,-0.0061,0,0,0,0,0,0,0.0097,0.0087,0.0094,0.0092,0.0087,0.0063,0.0061,0.0068,0.0033,0.0028,0.0049,0.0048,0.0002,-0.0003,-0.0007,-0.0002,-0.0027,-0.0028,-0.0029,-0.0062,-0.0061,-0.0061,0,0,0,0,0,0,0.0097,0.0098,0.0096,0.0089,0.0087,0.0064,0.0072,0.0068,0.0061,0.0031,0.0025,0.0048,0.0001,-0.0004,-0.0014,-0.0005,-0.0029,-0.0031,-0.0062,-0.0062,-0.0061,0.0001,0,0,0,0,0,0,0.0097,0.0099,0.0105,0.009,0.0088,0.0096,0.0073,0.0067,0.0061,0.0059,0.0028,0.0023,0.0001,-0.0011,-0.0016,-0.0007,-0.0032,-0.0062,-0.0062,-0.0061,-0.0001,0.0003,0.0007,0,0,0,0,0,0.0097,0.0115,0.0106,0.0106,0.0098,0.0097,0.0094,0.0074,0.0062,0.0066,0.0043,0.0024,-0.0013,-0.0012,-0.0018,-0.001,-0.0062,-0.0062,-0.0061,-0.0003,0.0002,0.0007,0,0,0,0,0,0,0.0113,0.0113,0.0102,0.0119,0.0111,0.0092,0.0094,0.008,0.0065,0.0061,0.003,0.0023,0.0015,-0.0006,-0.0005,-0.002,-0.0042,-0.0043,0.0004,0.0009,0.0013,0.0034,-0.0034,0,0,0,0,0,0.012,0.0133,0.0123,0.0135,0.0134,0.0113,0.0108,0.0098,0.0083,0.0076,0.0054,0.003,0.0012,0.0005,-0.0016,-0.0019,-0.0048,-0.002,-0.0016,-0.0012,0.0,-0.0038,-0.0036,-0.006,-0.006,-0.006,0,0,0.0128,0.013,0.0136,0.0139,0.0129,0.0142,0.0109,0.0111,0.012,0.0073,0.0076,0.0045,0.0014,0.0008,0.0002,-0.0007,-0.0022,-0.0011,-0.0007,0.0003,-0.0038,-0.0035,-0.0033,-0.006,-0.006,-0.006,0,0,0.0158,0.0154,0.0176,0.0175,0.017,0.0162,0.0166,0.0151,0.0143,0.0139,0.0107,0.0085,0.0059,0.004,0.0027,0.0043,0.0001,0.0031,0.0074,0.0036,0.0038,0.004,0.0003,0.0,0.0036,0.0036,0.0036,0,0.0165,0.0196,0.018,0.02,0.0208,0.0178,0.0204,0.0193,0.0176,0.0175,0.0149,0.0107,0.0076,0.0073,0.0075,0.0055,0.0024,0.0059,0.0043,0.0044,0.0044,0.0006,0.0002,0.0039,0.0039,0.0038,0.0038,0,0.0212,0.0234,0.0247,0.0267,0.0271,0.0289,0.0277,0.0277,0.0258,0.0243,0.0227,0.0177,0.0155,0.0135,0.011,0.0101,0.0075,0.0052,0.0034,0.005,0.0009,0.0004,0.0043,0.0042,0.0041,0.0041,0,0,0.0243,0.0276,0.0281,0.0307,0.0311,0.0327,0.0341,0.0351,0.037,0.0325,0.0337,0.0286,0.025,0.0232,0.0189,0.0152,0.0121,0.0109,0.0105,0.0079,0.0036,0.0006,-0.0002,0.0092,0.0091,0.0091,0.0005,0,0.0286,0.0347,0.0348,0.0406,0.0439,0.0422,0.0444,0.0443,0.0428,0.0429,0.0365,0.0354,0.029,0.0278,0.0232,0.0152,0.0112,0.0146,0.0018,0.0014,-0.0009,-0.0007,0.0022,-0.0053,0.0,-0.0001,-0.0001,0,0.0338,0.0376,0.0443,0.0492,0.0504,0.0532,0.0568,0.0583,0.0567,0.0551,0.0516,0.0462,0.0408,0.0346,0.0218,0.0242,0.015,0.0077,0.0071,0.0022,-0.0024,-0.0062,-0.0064,-0.001,-0.0009,-0.0009,-0.0008,0,0.0388,0.0446,0.0509,0.0525,0.0569,0.0598,0.0621,0.0624,0.0653,0.0631,0.0636,0.0552,0.0518,0.0391,0.0237,0.0227,0.0088,0.0053,-0.0062,-0.0065,-0.0075,-0.0079,-0.0038,-0.0038,-0.0038,-0.0038,-0.0037,0,0.0445,0.0495,0.0542,0.058,0.066,0.0662,0.0736,0.0741,0.0757,0.0803,0.0707,0.0713,0.0527,0.0422,0.027,0.0093,0.011,-0.0051,-0.0088,-0.0054,-0.0055,-0.0044,-0.0043,-0.0041,-0.004,-0.0039,-0.0039,0,0.0492,0.052,0.0601,0.0664,0.0691,0.075,0.0825,0.0874,0.0872,0.0927,0.0923,0.0834,0.0694,0.0496,0.0291,0.0146,-0.0027,-0.0094,-0.0043,-0.0072,-0.0165,-0.016,-0.0232,-0.0233,-0.0235,-0.0236,-0.0237,0,0.0522,0.0571,0.0669,0.0725,0.0761,0.0844,0.0904,0.0935,0.0994,0.1009,0.1044,0.0924,0.0866,0.0544,0.0259,-0.0016,-0.0046,-0.017,-0.0189,-0.0155,-0.0184,-0.0177,-0.0171,-0.0182,-0.0182,-0.0183,-0.0183,0,0.0583,0.0619,0.0686,0.0804,0.0885,0.0979,0.1069,0.1135,0.1176,0.1218,0.1251,0.1204,0.0894,0.0621,0.0232,0.0045,-0.0127,-0.0187,-0.0164,-0.0135,-0.0115,-0.0141,-0.0135,-0.0187,-0.0186,-0.0186,-0.0186,-0.0186,0.0629,0.0686,0.0779,0.0889,0.0983,0.1102,0.1195,0.1283,0.1389,0.146,0.1406,0.1336,0.1025,0.0523,0.0192,-0.0169,-0.0153,-0.0267,-0.0263,-0.0259,-0.0236,-0.0219,-0.0306,-0.0307,-0.0307,-0.0307,-0.0307,0,0.0685,0.0751,0.0856,0.0989,0.1099,0.1142,0.1298,0.1397,0.1529,0.1556,0.1575,0.1286,0.0956,0.0583,0.0057,-0.0247,-0.0268,-0.035,-0.0295,-0.0289,-0.0284,-0.026,-0.0338,-0.0339,-0.034,-0.0341,0,0,0.0717,0.0823,0.0878,0.1064,0.1157,0.133,0.1428,0.1564,0.163,0.1676,0.1619,0.1504,0.106,0.0682,0.0264,-0.0037,-0.0098,-0.0106,-0.0047,0.0073,0.0081,-0.0203,-0.0156,0,0,0,0,0]}],[{"header":{"parameterUnit":"m.s-1","parameterCategory":2,"la1":30.2991,"la2":30.254,"lo1":-89.0895,"lo2":-89.0444,"dy":0.0017,"dx":0.0017,"nx":28,"ny":28,"refTime":"2024-03-27T21:00:00:Z","depth":"4","parameterNumber":2,"parameterNumberName":"U-component_of_CURRENTS"},"data":[0,0,0,0,0,0,0,0,0,0,0,0,0,0,0,0,0,0,0,0,0,0,0,0,0,0,0,0,0,0,0,0,0,0,0,0,0,0,0,0,0,0,0,0,0,0,0,0,0,0,0,0,0,0,0,0,0,0,0.1654,0.1654,0,0.1714,0.1715,0.1715,0.1764,0.1764,0.1765,0.1766,0.1833,0.1835,0.1836,0,0,0,0,0,0,0,0,0,0,0,0,0,0.1572,0.1573,0.1654,0.1655,0.1655,0.1714,0.1715,0.1715,0.1764,0.1764,0.1765,0.1766,0.1833,0.1834,0.1836,0,0,0,0,0,0,0,0,0,0,0,0,0,0.1616,0.1574,0.1653,0.1688,0.1692,0.1714,0.1715,0.1716,0.1764,0.1764,0.1765,0.1766,0.1833,0.1834,0.1836,0.1827,0,0,0.1842,0.1842,0,0,0,0,0,0,0,0,0.1613,0.1619,0.1682,0.1686,0.169,0.1734,0.1711,0.1754,0.1763,0.1734,0.1766,0.1767,0.1801,0.1806,0.1812,0.1831,0.1834,0.1842,0.1843,0.1844,0.1844,0,0,0,0,0,0,0,0.161,0.1616,0.1676,0.1683,0.1688,0.1698,0.1705,0.1719,0.176,0.1737,0.1741,0.175,0.1804,0.181,0.1814,0.1835,0.1842,0.1843,0.1844,0.1845,0.1954,0.1955,0,0,0,0,0,0,0.1606,0.1613,0.1674,0.1678,0.1655,0.1699,0.1707,0.1717,0.176,0.1768,0.1749,0.1752,0.1807,0.1812,0.1817,0.1904,0.1844,0.1845,0.1846,0.1952,0.1954,0.1956,0,0,0,0,0,0,0.1604,0.1611,0.1671,0.1648,0.1657,0.1699,0.1711,0.1718,0.1762,0.177,0.1778,0.179,0.1808,0.1814,0.1865,0.1903,0.1846,0.1848,0.195,0.1952,0.1955,0.2016,0,0,0,0,0,0,0.1601,0.161,0.1633,0.1648,0.1658,0.1708,0.171,0.1719,0.1765,0.177,0.1806,0.1812,0.1809,0.1863,0.1867,0.1904,0.1849,0.1947,0.1951,0.1954,0.2012,0.2021,0.2028,0,0,0,0,0,0.1598,0.1619,0.1633,0.1642,0.1683,0.1709,0.1716,0.1747,0.1766,0.1789,0.182,0.1813,0.1887,0.1865,0.187,0.1909,0.1946,0.195,0.1954,0.2008,0.2019,0.2028,0,0,0,0,0,0,0.1596,0.1626,0.1643,0.1673,0.1702,0.1719,0.1749,0.1768,0.1809,0.1827,0.1833,0.1841,0.1902,0.1897,0.1873,0.1951,0.1916,0.1921,0.1956,0.1966,0.1974,0.1987,0.1851,0,0,0,0,0,0.1605,0.1633,0.1658,0.1688,0.1705,0.1734,0.1757,0.1779,0.1809,0.183,0.1856,0.1886,0.1915,0.1935,0.1958,0.1997,0.1998,0.2027,0.2035,0.2042,0.2056,0.2087,0.2099,0.1969,0.1969,0.1969,0,0,0.1614,0.1635,0.1653,0.1691,0.1717,0.1748,0.1751,0.1796,0.1832,0.1829,0.1898,0.192,0.1934,0.1983,0.2009,0.1988,0.208,0.2047,0.2052,0.2064,0.2092,0.2105,0.2116,0.1972,0.1972,0.1971,0,0,0.1631,0.1665,0.1691,0.1719,0.1766,0.1783,0.1804,0.1844,0.1879,0.1933,0.1948,0.1996,0.2035,0.2057,0.2069,0.2136,0.2126,0.2147,0.2195,0.2225,0.2236,0.2245,0.2263,0.2273,0.2146,0.2146,0.2146,0,0.1645,0.1677,0.1704,0.1735,0.1767,0.1803,0.1839,0.1873,0.1929,0.1962,0.1967,0.2056,0.207,0.213,0.2158,0.2156,0.2167,0.2154,0.2235,0.2244,0.2253,0.2269,0.228,0.215,0.2149,0.2149,0.2149,0,0.1668,0.1711,0.1731,0.1783,0.182,0.1859,0.1904,0.1956,0.2,0.203,0.2115,0.2141,0.2193,0.2206,0.2205,0.2279,0.2266,0.2244,0.2207,0.227,0.2282,0.2293,0.2155,0.2154,0.2152,0.2152,0,0,0.1653,0.1732,0.1745,0.178,0.1852,0.1879,0.1952,0.2016,0.2073,0.2131,0.2201,0.2261,0.2288,0.2306,0.2318,0.2345,0.2415,0.233,0.2329,0.2343,0.2483,0.2329,0.2324,0.2409,0.2411,0.2413,0.2466,0,0.1669,0.1728,0.1771,0.1841,0.1875,0.194,0.2001,0.207,0.2133,0.2209,0.2255,0.2328,0.2321,0.2364,0.2394,0.2417,0.2446,0.2403,0.2425,0.2425,0.2277,0.2332,0.242,0.2474,0.2476,0.2478,0.2479,0,0.167,0.1714,0.1783,0.1873,0.1897,0.1954,0.2064,0.2125,0.2231,0.2285,0.2365,0.2404,0.2483,0.2458,0.2531,0.2507,0.2511,0.2512,0.2513,0.2356,0.229,0.2399,0.2497,0.2495,0.2494,0.2493,0.2492,0,0.1627,0.172,0.1778,0.181,0.1916,0.1977,0.2046,0.2156,0.2219,0.235,0.2407,0.2495,0.2554,0.2581,0.2598,0.2579,0.2653,0.2617,0.248,0.2469,0.2564,0.2553,0.2664,0.2664,0.2664,0.2663,0.2663,0,0.1604,0.1655,0.1772,0.1802,0.1886,0.1972,0.2076,0.2158,0.2279,0.2348,0.2453,0.251,0.2591,0.2635,0.2633,0.2587,0.2683,0.2502,0.2476,0.2588,0.258,0.257,0.2559,0.2665,0.2665,0.2665,0.2664,0,0.1541,0.1617,0.1691,0.182,0.1867,0.1932,0.2083,0.2142,0.2279,0.2375,0.2423,0.2548,0.2606,0.2654,0.27,0.2615,0.2595,0.2553,0.2683,0.2662,0.2384,0.2375,0.2403,0.2398,0.2393,0.239,0.2387,0,0.1509,0.1543,0.1689,0.1736,0.1805,0.1915,0.1979,0.2128,0.2188,0.237,0.2393,0.2514,0.2575,0.2512,0.258,0.2564,0.2528,0.2497,0.2429,0.2387,0.236,0.2358,0.2355,0.238,0.2379,0.2378,0.2377,0,0.1447,0.1519,0.1578,0.1673,0.1755,0.1828,0.1938,0.1969,0.2128,0.2267,0.2307,0.2334,0.2392,0.2413,0.2421,0.2403,0.2504,0.2453,0.2461,0.2396,0.236,0.2337,0.2339,0.2363,0.2365,0.2366,0.2367,0,0.1406,0.143,0.1517,0.1585,0.1676,0.1709,0.1786,0.1849,0.1923,0.2117,0.2126,0.2249,0.237,0.2331,0.2339,0.2312,0.2269,0.2175,0.2197,0.2213,0.2124,0.2049,0.1943,0,0,0,0,0,0.1349,0.1357,0.1416,0.1473,0.1553,0.1602,0.1733,0.181,0.1964,0.1935,0.2025,0.2068,0.2088,0.2153,0.2085,0.2257,0.228,0.2168,0.2184,0.2283,0.2299,0.221,0,0,0,0,0,0,0.1308,0.1357,0.1372,0.1357,0.137,0.1437,0.1513,0.1623,0.1621,0.1787,0.1809,0.1928,0.198,0.2092,0.2036,0.2054,0.2019,0.2248,0.2242,0.2273,0.2288,0.2302,0.2216,0,0,0,0,0]},{"header":{"parameterUnit":"m.s-1","parameterCategory":2,"la1":30.2991,"la2":30.254,"lo1":-89.0895,"lo2":-89.0444,"dy":0.0017,"dx":0.0017,"nx":28,"ny":28,"refTime":"2024-03-27T21:00:00:Z","depth":"4","parameterNumber":3,"parameterNumberName":"V-component_of_CURRENTS"},"data":[0,0,0,0,0,0,0,0,0,0,0,0,0,0,0,0,0,0,0,0,0,0,0,0,0,0,0,0,0,0,0,0,0,0,0,0,0,0,0,0,0,0,0,0,0,0,0,0,0,0,0,0,0,0,0,0,0,0,0.0226,0.0226,0,0.0205,0.0205,0.0205,0.0192,0.0192,0.0192,0.0192,0.0157,0.0156,0.0155,0,0,0,0,0,0,0,0,0,0,0,0,0,0.0217,0.0217,0.0226,0.0226,0.0226,0.0205,0.0205,0.0205,0.0192,0.0192,0.0192,0.0192,0.0157,0.0156,0.0155,0,0,0,0,0,0,0,0,0,0,0,0,0,0.021,0.0217,0.0226,0.0217,0.0216,0.0205,0.0205,0.0204,0.0192,0.0192,0.0192,0.0192,0.0157,0.0156,0.0155,0.0146,0,0,0.015,0.015,0,0,0,0,0,0,0,0,0.0211,0.021,0.0219,0.0218,0.0217,0.0202,0.0189,0.0184,0.0192,0.02,0.0192,0.0192,0.0171,0.0168,0.0164,0.0144,0.0143,0.015,0.0149,0.0149,0.0148,0,0,0,0,0,0,0,0.0211,0.0211,0.0217,0.0219,0.0217,0.0201,0.0201,0.0188,0.0185,0.02,0.0199,0.0198,0.017,0.0165,0.0163,0.0142,0.015,0.0149,0.0148,0.0148,0.0111,0.0111,0,0,0,0,0,0,0.0217,0.0212,0.0218,0.0216,0.0214,0.0202,0.0201,0.0206,0.0185,0.0183,0.0198,0.0197,0.0167,0.0164,0.0161,0.0158,0.0149,0.0147,0.0147,0.0111,0.0111,0.0111,0,0,0,0,0,0,0.0217,0.0218,0.0219,0.0214,0.0213,0.0202,0.0208,0.0206,0.0204,0.0184,0.0181,0.0199,0.0167,0.0163,0.0155,0.0156,0.0147,0.0146,0.0111,0.0111,0.0111,0.0145,0,0,0,0,0,0,0.0217,0.0218,0.0223,0.0214,0.0213,0.0218,0.0208,0.0205,0.0204,0.0203,0.0185,0.0181,0.0167,0.0157,0.0153,0.0154,0.0144,0.0111,0.0111,0.0111,0.0144,0.0146,0.0148,0,0,0,0,0,0.0217,0.0227,0.0224,0.0224,0.0221,0.0218,0.0216,0.0208,0.0204,0.0206,0.0194,0.0182,0.0153,0.0156,0.0152,0.0152,0.0111,0.0111,0.0111,0.0143,0.0146,0.0148,0,0,0,0,0,0,0.0223,0.0226,0.0223,0.0233,0.0228,0.0216,0.0218,0.0212,0.0203,0.0203,0.0184,0.0179,0.0171,0.0156,0.016,0.0139,0.0129,0.0127,0.0154,0.0156,0.0158,0.017,0.0143,0,0,0,0,0,0.0228,0.0238,0.0233,0.024,0.0239,0.0229,0.0227,0.0222,0.0214,0.021,0.0197,0.018,0.0165,0.0158,0.0143,0.0134,0.0109,0.0129,0.0131,0.0133,0.0139,0.0098,0.0097,0.011,0.011,0.011,0,0,0.0232,0.0235,0.0239,0.0242,0.0237,0.0244,0.0228,0.0229,0.0233,0.0207,0.0208,0.0188,0.0164,0.0154,0.0149,0.0143,0.0114,0.0132,0.0134,0.0139,0.0098,0.0097,0.0096,0.011,0.011,0.011,0,0,0.0246,0.0248,0.0261,0.0261,0.026,0.0256,0.0259,0.0251,0.0246,0.0243,0.0223,0.0205,0.0186,0.0167,0.0155,0.0157,0.0126,0.015,0.0169,0.013,0.0129,0.0128,0.009,0.0085,0.0151,0.0151,0.0151,0,0.025,0.0269,0.0263,0.0274,0.0279,0.0265,0.0279,0.0271,0.0261,0.0258,0.0249,0.0212,0.0191,0.0174,0.0175,0.0162,0.0135,0.0165,0.0133,0.0131,0.0129,0.0091,0.0085,0.0152,0.0152,0.0152,0.0152,0,0.0274,0.0289,0.0297,0.031,0.0312,0.0323,0.0315,0.0314,0.0306,0.0294,0.0276,0.0243,0.0223,0.0207,0.0194,0.017,0.0154,0.0141,0.013,0.013,0.009,0.0083,0.0155,0.0154,0.0153,0.0153,0,0,0.0289,0.0311,0.0315,0.0332,0.0335,0.0344,0.0348,0.0349,0.0356,0.0328,0.0328,0.0289,0.0268,0.0253,0.0224,0.0187,0.0146,0.0163,0.016,0.0131,0.0059,0.0056,0.0048,0.0128,0.0127,0.0126,0.0035,0,0.0312,0.0348,0.0349,0.0384,0.0403,0.0394,0.0402,0.0398,0.0387,0.038,0.0333,0.0323,0.0286,0.028,0.0235,0.0173,0.0131,0.0172,0.006,0.0056,0.0058,0.0041,0.0123,0.003,0.0028,0.0027,0.0026,0,0.034,0.0362,0.0403,0.0432,0.0439,0.0458,0.0474,0.0481,0.046,0.0448,0.0418,0.0383,0.0332,0.0301,0.0186,0.0215,0.0143,0.0086,0.0081,0.0064,0.0041,0.0029,0.0014,0.0015,0.0016,0.0016,0.0017,0,0.0367,0.0402,0.0441,0.0451,0.0477,0.0497,0.0512,0.0507,0.0523,0.0498,0.0502,0.0426,0.0402,0.0297,0.0185,0.0184,0.0052,0.0034,-0.0041,-0.0042,-0.0027,-0.0025,-0.0053,-0.0053,-0.0052,-0.0052,-0.0052,0,0.0396,0.0429,0.0464,0.0488,0.054,0.0541,0.059,0.0588,0.0593,0.0618,0.0549,0.0542,0.0401,0.0311,0.0195,0.006,0.0057,-0.004,-0.0066,-0.0011,-0.0006,-0.0032,-0.0029,-0.0056,-0.0055,-0.0054,-0.0054,0,0.0421,0.0443,0.0495,0.0538,0.0561,0.0601,0.066,0.0687,0.0684,0.0714,0.0712,0.063,0.0511,0.0359,0.0187,0.0088,-0.005,-0.0099,-0.0027,-0.0047,-0.0124,-0.0117,-0.0196,-0.0197,-0.0198,-0.0198,-0.0199,0,0.0435,0.0467,0.054,0.0583,0.0612,0.0674,0.0717,0.0737,0.0772,0.077,0.0785,0.0685,0.061,0.037,0.0197,-0.0036,-0.0068,-0.0146,-0.0141,-0.0121,-0.0139,-0.0132,-0.0124,-0.02,-0.02,-0.02,-0.0201,0,0.0463,0.0495,0.0541,0.0633,0.0697,0.0765,0.0832,0.0863,0.0885,0.0879,0.0852,0.0724,0.0586,0.0383,0.0201,0.0034,-0.01,-0.0154,-0.0154,-0.0151,-0.0127,-0.0142,-0.0134,-0.0203,-0.0203,-0.0202,-0.0202,0,0.0488,0.0527,0.0599,0.068,0.0762,0.084,0.0867,0.0909,0.094,0.0932,0.092,0.0765,0.0673,0.042,0.0253,0.0086,0.0038,-0.002,-0.0027,-0.0027,0.0046,0.0102,0.0072,0,0,0,0,0,0.051,0.0564,0.0639,0.0734,0.0814,0.0874,0.0938,0.0955,0.0974,0.0968,0.095,0.0822,0.0574,0.0462,0.0295,0.0222,-0.0003,0.0018,-0.0076,-0.0217,-0.0214,-0.0158,0,0,0,0,0,0,0.0527,0.0603,0.0644,0.0768,0.0843,0.0939,0.0987,0.0997,0.0993,0.0981,0.0854,0.0786,0.0543,0.0683,0.0299,0.0246,0.0161,-0.01,-0.0104,-0.0219,-0.0216,-0.0214,-0.0155,0,0,0,0,0]}]]